Location: Newark
(6.7500°N, 43.3333°E)
Time: 15:49:54
(UTC+00:00)

OTV 5 (USA 277) - Visible Passes

Search period start: 22 August 2019 00:00
Search period end: 01 September 2019 00:00
Orbit: 305 x 329 km, 54.5° (Epoch: 20 August)

Date Brightness Start Highest point End Pass type
(mag) Time Alt. Az. Time Alt. Az. Time Alt. Az.
22 Aug ? 15:49:08 10° SW 15:51:53 79° NW 15:54:35 10° NNE visible
23 Aug ? 16:04:41 10° W 16:06:22 15° NW 16:08:03 10° NNW visible
24 Aug ? 01:48:34 10° NE 01:49:21 11° NE 01:50:08 10° ENE visible
25 Aug ? 02:01:18 10° NNW 02:03:51 53° ENE 02:06:26 10° SE visible
26 Aug ? 02:17:39 20° W 02:18:19 22° WSW 02:20:29 10° S visible
